Weather History for KAKR - February, 2013

Change the Weather History Date:

Tuesday, February 19, 2013

  Actual Average (KCAK) Record (KCAK)
Temperature  
Mean Temperature 32 °F 30 °F  
Max Temperature 48 °F 38 °F 65 °F (1939)
Min Temperature 17 °F 22 °F -9 °F (1936)
Degree Days  
Heating Degree Days 32 35  
Month to date heating degree days 702  
Since 1 July heating degree days 4238  
Cooling Degree Days 0 0  
Month to date cooling degree days 0  
Year to date cooling degree days 0  
Moisture  
Dew Point 24 °F    
Average Humidity 79    
Maximum Humidity 93    
Minimum Humidity 48    
Precipitation  
Precipitation 0.19 in 0.08 in - ()
Month to date precipitation 1.54  
Year to date precipitation 4.15  
Snow  
Snow 0.00 in 0.40 in - ()
Month to date snowfall 7.0  
Since 1 July snowfall 33.0  
Snow Depth -    
Sea Level Pressure  
Sea Level Pressure 29.76 in    
Wind  
Wind Speed 19 mph (WSW)    
Max Wind Speed 26 mph    
Max Gust Speed 38 mph    
Visibility 7 miles    
Events Rain , Snow    
T = Trace of Precipitation, MM = Missing Value Source: NWS Daily Summary

Daily Weather History Graph

Daily Weather History Graph

Search for Another Location

Airport or City:

Trip Planner

Search our weather history database for the weather conditions in past years. The results will help you decide how hot, cold, wet, or windy it might be!

Date:

Astronomy

Feb. 19, 2013 Rise Set
Actual Time 7:14 AM EST 6:05 PM EST
Civil Twilight 6:46 AM EST 6:33 PM EST
Nautical Twilight 6:14 AM EST 7:05 PM EST
Astronomical Twilight 5:42 AM EST 7:37 PM EST
Moon 12:34 PM EST (2/19) 2:46 AM EST (2/19)
Length of Visible Light 11h 46m
Length of Day
10h 50m
Waxing Gibbous, 67% of the Moon is Illuminated
Feb 19
Waxing Gibbous
Feb 25
Full
Mar 4
Last Quarter
Mar 11
New
Mar 19
First Quarter

Hourly Weather History & Observations

Time (EST) Temp. Windchill Dew Point Humidity Pressure Visibility Wind Dir Wind Speed Gust Speed Precip Events Conditions
12:54 AM 48.0 °F - 28.9 °F 48% 29.77 in 10.0 mi SSW 23.0 mph 36.8 mph N/A   Mostly Cloudy
1:54 AM 45.0 °F 36.6 °F 34.0 °F 65% 29.75 in 10.0 mi SSW 21.9 mph 32.2 mph 0.00 in Rain Light Rain
2:38 AM 41.0 °F 33.1 °F 35.6 °F 81% 29.71 in 7.0 mi South 15.0 mph 33.4 mph 0.03 in Rain Light Rain
2:54 AM 39.9 °F 31.1 °F 36.0 °F 86% 29.72 in 10.0 mi South 17.3 mph 23.0 mph 0.04 in Rain Light Rain
3:11 AM 41.0 °F 31.6 °F 35.6 °F 81% 29.69 in 10.0 mi South 20.7 mph 29.9 mph 0.00 in Rain Light Rain
3:52 AM 39.2 °F 29.8 °F 35.6 °F 87% 29.65 in 10.0 mi South 18.4 mph 29.9 mph 0.01 in   Overcast
3:54 AM 39.9 °F 30.8 °F 35.1 °F 83% 29.67 in 10.0 mi South 18.4 mph 29.9 mph 0.01 in   Overcast
4:54 AM 39.0 °F 29.3 °F 36.0 °F 89% 29.65 in 7.0 mi South 19.6 mph 27.6 mph 0.02 in Rain Light Rain
5:01 AM 39.2 °F 29.3 °F 35.6 °F 87% 29.63 in 8.0 mi South 20.7 mph 26.5 mph 0.01 in Rain Light Rain
5:08 AM 39.2 °F 29.3 °F 35.6 °F 87% 29.63 in 9.0 mi South 20.7 mph 29.9 mph 0.01 in Rain Light Rain
5:54 AM 39.9 °F 30.2 °F 37.0 °F 89% 29.63 in 10.0 mi SSW 20.7 mph 26.5 mph 0.02 in Rain Light Rain
6:54 AM 39.2 °F 29.6 °F 37.4 °F 93% 29.60 in 7.0 mi South 19.6 mph 25.3 mph N/A Rain Light Rain
7:54 AM 41.0 °F 33.5 °F 37.9 °F 89% 29.61 in 10.0 mi SSW 13.8 mph 28.8 mph 0.00 in Rain Light Rain
8:08 AM 41.0 °F 32.8 °F 37.4 °F 87% 29.60 in 6.0 mi SSW 16.1 mph 24.2 mph 0.01 in Rain Light Rain
8:15 AM 41.0 °F 32.5 °F 37.4 °F 87% 29.63 in 6.0 mi WSW 17.3 mph 28.8 mph 0.02 in Rain Light Rain
8:20 AM 35.6 °F 25.5 °F 33.8 °F 93% 29.63 in 1.8 mi West 17.3 mph 36.8 mph 0.03 in Rain Heavy Rain
8:27 AM 33.8 °F 22.8 °F 32.0 °F 93% 29.64 in 2.0 mi West 18.4 mph - 0.05 in Snow Light Snow
8:40 AM 33.8 °F 23.9 °F 32.0 °F 93% 29.64 in 3.0 mi West 15.0 mph - 0.07 in Snow Light Snow
8:47 AM 33.8 °F 25.3 °F 32.0 °F 93% 29.65 in 3.0 mi WSW 11.5 mph 23.0 mph 0.07 in Snow Light Snow
8:54 AM 34.0 °F 26.0 °F 32.0 °F 92% 29.66 in 2.5 mi WSW 10.4 mph - 0.08 in Snow Light Snow
9:20 AM 33.8 °F 26.4 °F 32.0 °F 93% 29.65 in 1.2 mi SW 9.2 mph - 0.02 in Snow Light Snow
9:27 AM 33.8 °F 24.8 °F 32.0 °F 93% 29.65 in 3.0 mi SW 12.7 mph - 0.02 in Snow Light Snow
9:47 AM 33.8 °F 24.3 °F 30.2 °F 87% 29.65 in 10.0 mi WSW 13.8 mph 24.2 mph 0.02 in   Overcast
9:54 AM 34.0 °F 24.6 °F 30.9 °F 89% 29.68 in 10.0 mi WSW 13.8 mph 20.7 mph 0.02 in   Overcast
10:17 AM 33.8 °F 22.5 °F 28.4 °F 81% 29.67 in 10.0 mi West 19.6 mph 28.8 mph N/A   Overcast
10:54 AM 32.0 °F 21.2 °F 27.0 °F 82% 29.70 in 10.0 mi SW 16.1 mph 25.3 mph N/A   Overcast
11:13 AM 30.2 °F 16.8 °F 26.6 °F 86% 29.69 in 8.0 mi West 23.0 mph 34.5 mph N/A   Overcast
11:39 AM 30.2 °F 17.1 °F 24.8 °F 80% 29.70 in 10.0 mi SW 21.9 mph 32.2 mph N/A   Overcast
11:54 AM 30.9 °F 18.1 °F 23.0 °F 72% 29.73 in 10.0 mi WSW 21.9 mph 35.7 mph N/A   Overcast
12:43 PM 28.4 °F 15.4 °F 23.0 °F 80% 29.72 in 9.0 mi West 19.6 mph 27.6 mph N/A   Overcast
1:14 PM 28.4 °F 15.8 °F 21.2 °F 74% 29.72 in 9.0 mi WSW 18.4 mph 27.6 mph N/A   Overcast
1:51 PM 28.4 °F 15.8 °F 21.2 °F 74% 29.71 in 7.0 mi SW 18.4 mph 28.8 mph 0.00 in Snow Light Snow
1:54 PM 28.9 °F 17.3 °F 21.9 °F 75% 29.73 in 6.0 mi SW 16.1 mph 28.8 mph 0.00 in Snow Light Snow
2:02 PM 28.4 °F 15.4 °F 21.2 °F 74% 29.71 in 8.0 mi WSW 19.6 mph 28.8 mph 0.00 in   Overcast
2:11 PM 28.4 °F 16.2 °F 21.2 °F 74% 29.71 in 9.0 mi SW 17.3 mph 31.1 mph 0.00 in   Overcast
2:54 PM 28.0 °F 13.9 °F 18.0 °F 66% 29.77 in 10.0 mi West 23.0 mph 34.5 mph 0.00 in   Overcast
3:26 PM 28.4 °F 14.4 °F 17.6 °F 64% 29.75 in 10.0 mi WSW 23.0 mph 34.5 mph N/A   Overcast
3:54 PM 28.0 °F 13.9 °F 19.0 °F 69% 29.78 in 7.0 mi West 23.0 mph 31.1 mph 0.00 in Snow Light Snow
4:05 PM 28.4 °F 15.4 °F 19.4 °F 69% 29.76 in 4.0 mi WSW 19.6 mph 28.8 mph 0.00 in Snow Light Snow
4:54 PM 27.0 °F 11.6 °F 18.0 °F 69% 29.83 in 6.0 mi West 26.5 mph 38.0 mph 0.00 in   Haze
5:02 PM 26.6 °F 11.7 °F 17.6 °F 69% 29.80 in 2.5 mi WSW 24.2 mph 35.7 mph 0.00 in Snow Light Snow
5:05 PM 26.6 °F 12.7 °F 17.6 °F 69% 29.81 in 3.0 mi WSW 20.7 mph 35.7 mph 0.00 in Snow Light Snow
5:54 PM 25.0 °F 10.9 °F 17.1 °F 72% 29.86 in 5.0 mi WSW 19.6 mph 25.3 mph 0.00 in Snow Light Snow
6:04 PM 24.8 °F 11.1 °F 17.6 °F 74% 29.84 in 2.5 mi West 18.4 mph 24.2 mph 0.00 in Snow Light Snow
6:11 PM 24.8 °F 11.5 °F 17.6 °F 74% 29.84 in 3.0 mi West 17.3 mph 24.2 mph 0.00 in Snow Light Snow
6:29 PM 24.8 °F 11.1 °F 17.6 °F 74% 29.85 in 6.0 mi WSW 18.4 mph 32.2 mph 0.00 in Snow Light Snow
7:36 PM 21.2 °F 5.2 °F 15.8 °F 80% 29.89 in 5.0 mi WSW 21.9 mph 28.8 mph 0.00 in Snow Light Snow
7:54 PM 21.0 °F 3.6 °F 12.0 °F 68% 29.93 in 8.0 mi West 26.5 mph 38.0 mph 0.00 in Snow Light Snow
8:54 PM 21.0 °F 7.6 °F 14.0 °F 74% 29.94 in 5.0 mi West 15.0 mph - 0.00 in Snow Light Snow
9:18 PM 19.4 °F 2.8 °F 14.0 °F 80% 29.91 in 2.5 mi West 21.9 mph 27.6 mph 0.00 in Snow Light Snow
9:54 PM 19.0 °F 5.0 °F 12.9 °F 77% 29.96 in 2.5 mi West 15.0 mph 26.5 mph 0.00 in Snow Light Snow
10:08 PM 19.4 °F 4.1 °F 12.2 °F 74% 29.93 in 4.0 mi West 18.4 mph 29.9 mph 0.00 in Snow Light Snow
10:18 PM 19.4 °F 4.1 °F 12.2 °F 74% 29.93 in 5.0 mi West 18.4 mph 29.9 mph 0.00 in Snow Light Snow
10:28 PM 19.4 °F 7.9 °F 12.2 °F 74% 29.93 in 4.0 mi West 10.4 mph 28.8 mph 0.00 in Snow Light Snow
10:42 PM 17.6 °F 4.3 °F 12.2 °F 79% 29.94 in 2.5 mi West 12.7 mph 20.7 mph 0.00 in Snow Light Snow
10:54 PM 18.0 °F 3.6 °F 12.9 °F 81% 29.98 in 2.5 mi West 15.0 mph 21.9 mph 0.00 in Snow Light Snow
11:01 PM 17.6 °F 3.7 °F 12.2 °F 79% 29.94 in 6.0 mi West 13.8 mph - 0.00 in Snow Light Snow
11:11 PM 17.6 °F 1.3 °F 10.4 °F 73% 29.94 in 9.0 mi West 19.6 mph 27.6 mph 0.00 in   Overcast
11:54 PM 17.1 °F 1.5 °F 10.0 °F 74% 29.99 in 9.0 mi West 17.3 mph - 0.00 in   Overcast